(°C)
-3°
-1°
(°C)
-7°
-5°
-4°
-3°
-2°
-2°
-2°
JZ
JJZ
JJZ
JJZ
JJZ
JJZ
JJZ
(km/h)
7-15
8-18
11-21
14-24
17-27
17-28
16-28
(mm)
0
0
0
0
0
0
0
(%)
0
0
0
0
0
0
0

Výška Slnka nad obzorom

/ 16.1°
sun-icon
UV 2
07:43
17:22
Ubúdajúci kosáčik (294°)
01:59
14:43

Správy METAR pre lokalitu Indiana (KTYQ)

Čas Podmienky Teplota/
Rosný bod
Vietor Viditeľnosť Počasie Oblaky Tlak Zmeniť Nespracované
VFR -3.2°C / -6.4°C 190º 3kt >10km - Clear - KTYQ 291415Z AUTO 19003KT 10SM CLR M03/M06 A3015 RMK AO2 T10321064
VFR -4.4°C / -6.6°C 190º 3kt >10km - Clear - KTYQ 291355Z AUTO 19003KT 10SM CLR M04/M07 A3014 RMK AO2 T10441066
VFR -5.5°C / -7.5°C 190º 4kt >10km - Clear - KTYQ 291335Z AUTO 19004KT 10SM CLR M05/M07 A3015 RMK AO2 T10551075
VFR -6.3°C / -7.8°C variable 0kt >10km - Clear - KTYQ 291315Z AUTO 00000KT 10SM CLR M06/M08 A3015 RMK AO2 T10631078
VFR -7°C / -8.4°C variable 0kt >10km - Clear - KTYQ 291255Z AUTO 00000KT 10SM CLR M07/M08 A3015 RMK AO2 T10701084
VFR -7°C / -8.5°C variable 0kt >10km - Clear - KTYQ 291235Z AUTO 00000KT 10SM CLR M07/M08 A3015 RMK AO2 T10701085
VFR -6.1°C / -8.2°C variable 0kt >10km - Clear - KTYQ 291215Z AUTO 00000KT 10SM CLR M06/M08 A3015 RMK AO2 T10611082
VFR -5.9°C / -8.6°C variable 0kt >10km - Clear - KTYQ 291155Z AUTO 00000KT 10SM CLR M06/M09 A3015 RMK AO2 T10591086 11045 21059
VFR -5.7°C / -8.4°C variable 0kt >10km - Clear - KTYQ 291135Z AUTO 00000KT 10SM CLR M06/M08 A3014 RMK AO2 T10571084
VFR -5.1°C / -8.6°C 240º 3kt >10km - Clear - KTYQ 291115Z AUTO 24003KT 10SM CLR M05/M09 A3014 RMK AO2 T10511086
VFR -4.8°C / -8.6°C variable 0kt >10km - Clear - KTYQ 291055Z AUTO 00000KT 10SM CLR M05/M09 A3014 RMK AO2 T10481086
VFR -5°C / -8.3°C variable 0kt >10km - Clear - KTYQ 291035Z AUTO 00000KT 10SM CLR M05/M08 A3015 RMK AO2 T10501083
VFR -5.4°C / -8.5°C variable 0kt >10km - Clear - KTYQ 291015Z AUTO 00000KT 10SM CLR M05/M08 A3015 RMK AO2 T10541085
VFR -5.4°C / -8.5°C variable 0kt >10km - Clear - KTYQ 290955Z AUTO 00000KT 10SM CLR M05/M08 A3015 RMK AO2 T10541085
VFR -4.6°C / -8.5°C 270º 6kt >10km - Clear - KTYQ 290935Z AUTO 27006KT 10SM CLR M05/M08 A3014 RMK AO2 T10461085
VFR -5.4°C / -8.7°C 260º 5kt >10km - Clear - KTYQ 290915Z AUTO 26005KT 10SM CLR M05/M09 A3014 RMK AO2 T10541087
VFR -5.1°C / -8.5°C variable 0kt >10km - Clear - KTYQ 290855Z AUTO 00000KT 10SM CLR M05/M08 A3014 RMK AO2 T10511085
VFR -5.9°C / -8.5°C variable 0kt >10km - Clear - KTYQ 290835Z AUTO 00000KT 10SM CLR M06/M08 A3015 RMK AO2 T10591085
VFR -5.4°C / -8.4°C 260º 3kt >10km - Clear - KTYQ 290815Z AUTO 26003KT 10SM CLR M05/M08 A3015 RMK AO2 T10541084
VFR -4.7°C / -8.3°C 270º 4kt >10km - Clear - KTYQ 290755Z AUTO 27004KT 10SM CLR M05/M08 A3014 RMK AO2 T10471083
VFR -4.6°C / -8.6°C 280º 4kt >10km - Clear - KTYQ 290735Z AUTO 28004KT 10SM CLR M05/M09 A3014 RMK AO2 T10461086
VFR -4.5°C / -8.3°C 270º 5kt >10km - Clear - KTYQ 290715Z AUTO 27005KT 10SM CLR M04/M08 A3014 RMK AO2 T10451083
VFR -4.6°C / -8.1°C 270º 7kt >10km - Clear - KTYQ 290655Z AUTO 27007KT 10SM CLR M05/M08 A3014 RMK AO2 T10461081
VFR -4.8°C / -8.1°C 270º 6kt >10km - Clear - KTYQ 290635Z AUTO 27006KT 10SM CLR M05/M08 A3014 RMK AO2 T10481081

VFR

-3.2°C / -6.4°C

[Viac]
Vietor 190º 3kt
Viditeľnosť >10km
Počasie -
Oblaky Clear
Tlak
Zmeniť -
Nespracované KTYQ 291415Z AUTO 19003KT 10SM CLR M03/M06 A3015 RMK AO2 T10321064

VFR

-4.4°C / -6.6°C

[Viac]
Vietor 190º 3kt
Viditeľnosť >10km
Počasie -
Oblaky Clear
Tlak
Zmeniť -
Nespracované KTYQ 291355Z AUTO 19003KT 10SM CLR M04/M07 A3014 RMK AO2 T10441066

VFR

-5.5°C / -7.5°C

[Viac]
Vietor 190º 4kt
Viditeľnosť >10km
Počasie -
Oblaky Clear
Tlak
Zmeniť -
Nespracované KTYQ 291335Z AUTO 19004KT 10SM CLR M05/M07 A3015 RMK AO2 T10551075

VFR

-6.3°C / -7.8°C

[Viac]
Vietor variable 0kt
Viditeľnosť >10km
Počasie -
Oblaky Clear
Tlak
Zmeniť -
Nespracované KTYQ 291315Z AUTO 00000KT 10SM CLR M06/M08 A3015 RMK AO2 T10631078

VFR

-7°C / -8.4°C

[Viac]
Vietor variable 0kt
Viditeľnosť >10km
Počasie -
Oblaky Clear
Tlak
Zmeniť -
Nespracované KTYQ 291255Z AUTO 00000KT 10SM CLR M07/M08 A3015 RMK AO2 T10701084

VFR

-7°C / -8.5°C

[Viac]
Vietor variable 0kt
Viditeľnosť >10km
Počasie -
Oblaky Clear
Tlak
Zmeniť -
Nespracované KTYQ 291235Z AUTO 00000KT 10SM CLR M07/M08 A3015 RMK AO2 T10701085

VFR

-6.1°C / -8.2°C

[Viac]
Vietor variable 0kt
Viditeľnosť >10km
Počasie -
Oblaky Clear
Tlak
Zmeniť -
Nespracované KTYQ 291215Z AUTO 00000KT 10SM CLR M06/M08 A3015 RMK AO2 T10611082

VFR

-5.9°C / -8.6°C

[Viac]
Vietor variable 0kt
Viditeľnosť >10km
Počasie -
Oblaky Clear
Tlak
Zmeniť -
Nespracované KTYQ 291155Z AUTO 00000KT 10SM CLR M06/M09 A3015 RMK AO2 T10591086 11045 21059

VFR

-5.7°C / -8.4°C

[Viac]
Vietor variable 0kt
Viditeľnosť >10km
Počasie -
Oblaky Clear
Tlak
Zmeniť -
Nespracované KTYQ 291135Z AUTO 00000KT 10SM CLR M06/M08 A3014 RMK AO2 T10571084

VFR

-5.1°C / -8.6°C

[Viac]
Vietor 240º 3kt
Viditeľnosť >10km
Počasie -
Oblaky Clear
Tlak
Zmeniť -
Nespracované KTYQ 291115Z AUTO 24003KT 10SM CLR M05/M09 A3014 RMK AO2 T10511086

VFR

-4.8°C / -8.6°C

[Viac]
Vietor variable 0kt
Viditeľnosť >10km
Počasie -
Oblaky Clear
Tlak
Zmeniť -
Nespracované KTYQ 291055Z AUTO 00000KT 10SM CLR M05/M09 A3014 RMK AO2 T10481086

VFR

-5°C / -8.3°C

[Viac]
Vietor variable 0kt
Viditeľnosť >10km
Počasie -
Oblaky Clear
Tlak
Zmeniť -
Nespracované KTYQ 291035Z AUTO 00000KT 10SM CLR M05/M08 A3015 RMK AO2 T10501083

VFR

-5.4°C / -8.5°C

[Viac]
Vietor variable 0kt
Viditeľnosť >10km
Počasie -
Oblaky Clear
Tlak
Zmeniť -
Nespracované KTYQ 291015Z AUTO 00000KT 10SM CLR M05/M08 A3015 RMK AO2 T10541085

VFR

-5.4°C / -8.5°C

[Viac]
Vietor variable 0kt
Viditeľnosť >10km
Počasie -
Oblaky Clear
Tlak
Zmeniť -
Nespracované KTYQ 290955Z AUTO 00000KT 10SM CLR M05/M08 A3015 RMK AO2 T10541085

VFR

-4.6°C / -8.5°C

[Viac]
Vietor 270º 6kt
Viditeľnosť >10km
Počasie -
Oblaky Clear
Tlak
Zmeniť -
Nespracované KTYQ 290935Z AUTO 27006KT 10SM CLR M05/M08 A3014 RMK AO2 T10461085

VFR

-5.4°C / -8.7°C

[Viac]
Vietor 260º 5kt
Viditeľnosť >10km
Počasie -
Oblaky Clear
Tlak
Zmeniť -
Nespracované KTYQ 290915Z AUTO 26005KT 10SM CLR M05/M09 A3014 RMK AO2 T10541087

VFR

-5.1°C / -8.5°C

[Viac]
Vietor variable 0kt
Viditeľnosť >10km
Počasie -
Oblaky Clear
Tlak
Zmeniť -
Nespracované KTYQ 290855Z AUTO 00000KT 10SM CLR M05/M08 A3014 RMK AO2 T10511085

VFR

-5.9°C / -8.5°C

[Viac]
Vietor variable 0kt
Viditeľnosť >10km
Počasie -
Oblaky Clear
Tlak
Zmeniť -
Nespracované KTYQ 290835Z AUTO 00000KT 10SM CLR M06/M08 A3015 RMK AO2 T10591085

VFR

-5.4°C / -8.4°C

[Viac]
Vietor 260º 3kt
Viditeľnosť >10km
Počasie -
Oblaky Clear
Tlak
Zmeniť -
Nespracované KTYQ 290815Z AUTO 26003KT 10SM CLR M05/M08 A3015 RMK AO2 T10541084

VFR

-4.7°C / -8.3°C

[Viac]
Vietor 270º 4kt
Viditeľnosť >10km
Počasie -
Oblaky Clear
Tlak
Zmeniť -
Nespracované KTYQ 290755Z AUTO 27004KT 10SM CLR M05/M08 A3014 RMK AO2 T10471083

VFR

-4.6°C / -8.6°C

[Viac]
Vietor 280º 4kt
Viditeľnosť >10km
Počasie -
Oblaky Clear
Tlak
Zmeniť -
Nespracované KTYQ 290735Z AUTO 28004KT 10SM CLR M05/M09 A3014 RMK AO2 T10461086

VFR

-4.5°C / -8.3°C

[Viac]
Vietor 270º 5kt
Viditeľnosť >10km
Počasie -
Oblaky Clear
Tlak
Zmeniť -
Nespracované KTYQ 290715Z AUTO 27005KT 10SM CLR M04/M08 A3014 RMK AO2 T10451083

VFR

-4.6°C / -8.1°C

[Viac]
Vietor 270º 7kt
Viditeľnosť >10km
Počasie -
Oblaky Clear
Tlak
Zmeniť -
Nespracované KTYQ 290655Z AUTO 27007KT 10SM CLR M05/M08 A3014 RMK AO2 T10461081

VFR

-4.8°C / -8.1°C

[Viac]
Vietor 270º 6kt
Viditeľnosť >10km
Počasie -
Oblaky Clear
Tlak
Zmeniť -
Nespracované KTYQ 290635Z AUTO 27006KT 10SM CLR M05/M08 A3014 RMK AO2 T10481081

Aktuálne satelitné snímky pre lokalitu Indiana, Spojené štáty americké

Značka polohy je umiestnená naIndiana. [Viac]

Satelitné snímky zhotovované v reálnom čase využívajú viditeľné svetlo počas dňa a infračervené žiarenie počas noci. Vzhľadom na to, že infračervené žiarenie zisťuje teplotné rozdiely, snímka v noci nie je tmavá. Nízke oblaky a hmlu je, žiaľ, ťažké odlíšiť od prízemných teplôt, preto môžu byť počas noci takmer neviditeľné. Meteosat satelitné snímky pre Európu sú aktualizované v reálnom čase každých 5 minút. Snímky z GOES-16/GOES-17 (Severná a Južná Amerika) a Himawari (Ázia) sú aktualizované každých 10 minút.

Radar a krátkodobá predpoveď zrážok pre Indiana

Mrholenie
Slabý
Mierne
Ťažké
Veľmi ťažké
Krúpy

Značka polohy je umiestnená na Indiana. Táto animácia ukazuje zrážky pozorované radarom za poslednú hodinu a tiež 1h predpoveď. Mrholenie alebo slabé sneženie môže byť pre radar neviditeľné. Intenzita zrážok je farebne označená od svetlomodrej po oranžovú.